DELTA 1 DEB, 12538

Orbit data source: Space-Track

DELTA 1 DEB, 12538 is space debris in SSO originally from a launch on Thu, 29 Jul 1976 UTC launched from the Air Force Western Test Range (AFWTR). Debris objects in space refer to the collection of defunct objects orbiting the Earth. Examples of debris include non-operational satellites, rocket bodies, and fragments generated from explosions, collisions, or faulty payload assembly.

Loading next visibility...
Identifier
12538, 1976-077DT
Orbit
SSO
Country
Flag of USUS
Related business
Manufacturer
Unknown
Mission
Spacecraft
Bus & Motor
Unknown
Mass
Unknown
Launch date (UTC)
1976-07-29 (50 years ago)
Launch vehicle
Unknown
Launch site
Air Force Western Test Range (AFWTR)
Object type
Payload
Rocket body
Debris
Shape & HBR
Unknown shape, 0.2 m
Radar Cross Section
Small (<0.1 m²)

Expand to show TLE details & history
Last TLE update: 7 hours ago

TLE from 7 hours ago
0 DELTA 1 DEB
1 12538U 76077DT  26126.52013500  .00000182  00000-0  24754-2 0  9994
2 12538 102.7736 222.6165 0197078 334.3395  35.2281 12.05743640 27410
Epoch: 2026-05-06T12:28Z
TLE epoch observation values (Epoch: 2026-05-06T12:28:59.664Z)
Latitude
10.58055°
Longitude
168.57325°
Altitude
1,528.697 km
Speed
7.159 km/s
True Right ascension
14h 40m 48s
True Declination
10° 31' 29"
Sunlit
Object was in full shadow at epoch
Visualization orbit readout
Latitude
Unknown
Longitude
Unknown
Altitude
Unknown
Speed
Unknown
Apparent Right ascension
Unknown
Apparent Declination
Unknown
Sunlit
N/A
Visualization observer readout
Local Sidereal Time
03:57:03
Azimuth
Unknown
Elevation
Unknown
Doppler factor
Unknown
Orbital elements
Apogee altitude
1,811.186 km
Perigee altitude
1,494.638 km
Semi-major axis
8,031.049 km
Eccentricity
0.01971
Inclination
102.7736°
RAAN
222.6165°
Arg. of periapsis
334.3395°
True anomaly
36.5574°
Mean anomaly
35.2281°
Eccentric anomaly
35.89006°
Mean motion
3.01568 °/min
Orbital period
119.38 mins
BSTAR
0.0024754
Loading maneuver chart data...
Computing Atmospheric mass density...
Loading historical data...
Loading historical data...
Loading historical data...
Loading historical data...
Loading historical data...
Loading historical data...
Loading historical data...

Documentation

Showing up to 5 results
|